DECAYED

STARLINK-1468, 45734 (Decayed)

Orbit data source: Space-Track

STARLINK-1468, 45734 was a payload satellite owned by SpaceX/Seattle (US) in LEO that was launched on Sat, 13 Jun 2020 UTC via an FALCON 9 launch vehicle from the Air Force Eastern Test Range (AFETR). Payload-class satellites include a variety of spacecraft equipped with specific instruments for various scientific and technological missions. These include communications satellites like Starlink; space stations such as the ISS; scientific satellites like the Hubble; Earth observation satellites from companies like Planet Labs, Umbra, and HawkEye 360; GPS; miniature CubeSats for education and research; and military/defense satellites.

Not visible in the next 10 days
Identifier
45734, 2020-038E
Orbit
Decayed
Country
Flag of USUS
Related business
Manufacturer
SpaceX/Seattle
Mission
Decayed Commercial Communications
Bus & Motor
STARLINK, Unknown motor
Mass
260 kg wet, ~248 kg dry
Launch date (UTC)
2020-06-13 (6 years ago)
Launch vehicle
FALCON 9
Launch site
Air Force Eastern Test Range (AFETR)
Object type
Payload
Rocket body
Debris
Shape & HBR
Box + 1 Pan, 10.1 m
Radar Cross Section
13.562 m², Large (>1 m²)

Expand to show TLE details & history
Last TLE update: 1 year ago

TLE from 1 year ago
0 STARLINK-1468
1 45734U 20038E   24363.68374941  .09789651  12205-4  58970-3 0  9997
2 45734  53.0396 268.7615 0011586 194.9677 253.2393 16.41093828253368
Epoch: 2024-12-28T16:24Z
TLE epoch observation values (Epoch: 2024-12-28T16:24:35.949Z)
Latitude
53.15551°
Longitude
11.78574°
Altitude
171.558 km
Speed
7.809 km/s
True Right ascension
23h 42m 15s
True Declination
52° 58' 32"
Sunlit
Object was in daylight at epoch
Visualization orbit readout
Latitude
Unknown
Longitude
Unknown
Altitude
Unknown
Speed
Unknown
Apparent Right ascension
Unknown
Apparent Declination
Unknown
Sunlit
N/A
Visualization observer readout
Local Sidereal Time
09:55:53
Azimuth
Unknown
Elevation
Unknown
Doppler factor
Unknown
Orbital elements
Apogee altitude
170.762 km
Perigee altitude
155.604 km
Semi-major axis
6,541.32 km
Eccentricity
0.00116
Inclination
53.0396°
RAAN
268.7615°
Arg. of periapsis
194.9677°
True anomaly
253.11223°
Mean anomaly
253.2393°
Eccentric anomaly
253.17576°
Mean motion
4.10247 °/min
Orbital period
87.75 mins
BSTAR
0.0005897
Loading maneuver chart data...
Computing Atmospheric mass density...
Loading historical data...
Loading historical data...
Loading historical data...
Loading historical data...
Loading historical data...
Loading historical data...
Loading historical data...

Documentation

Showing up to 5 results
|